Weather History for Nantucket, MA

Change the Weather History Date:

Tuesday, October 14, 2014

  Actual Average Record
Temperature  
Mean Temperature 64 °F -  
Max Temperature 68 °F 63 °F 76 °F (1971)
Min Temperature 61 °F 47 °F 33 °F (1951)
Degree Days  
Heating Degree Days 2    
Growing Degree Days 14 (Base 50)    
Moisture  
Dew Point 59 °F    
Average Humidity 86    
Maximum Humidity 96    
Minimum Humidity 80    
Precipitation  
Precipitation 0.00 in - - ()
Sea Level Pressure  
Sea Level Pressure 30.27 in    
Wind  
Wind Speed 9 mph (South)    
Max Wind Speed 12 mph    
Max Gust Speed -    
Visibility 10 miles    
Events      
Averages and records for this station are not official NWS values.
T = Trace of Precipitation, MM = Missing Value Source: NWS Daily Summary

Daily Weather History Graph

Daily Weather History Graph

Search for Another Location

Airport:

Trip Planner

Search our weather history database for the weather conditions in past years. The results will help you decide how hot, cold, wet, or windy it might be!

Date:

Astronomy

Oct. 14, 2014 Rise Set
Actual Time 6:50 AM EDT 6:00 PM EDT
Civil Twilight 6:23 AM EDT 6:28 PM EDT
Nautical Twilight 5:51 AM EDT 7:00 PM EDT
Astronomical Twilight 5:19 AM EDT 7:32 PM EDT
Moon 11:01 PM EDT (10/14) 12:51 PM EDT (10/14)
Length of Visible Light 12h 05m
Length of Day
11h 10m
Waning Gibbous, 61% of the Moon is Illuminated
Oct 14
Waning Gibbous
Oct 15
Last Quarter
Oct 23
New
Oct 30
First Quarter
Nov 6
Full

Hourly Weather History & Observations

Time (EDT) Temp. Dew Point Humidity Pressure Visibility Wind Dir Wind Speed Gust Speed Precip Events Conditions
12:53 AM 61.0 °F 55.0 °F 81% 30.30 in 10.0 mi South 10.4 mph - N/A   Overcast
1:53 AM 62.1 °F 55.9 °F 80% 30.29 in 10.0 mi South 10.4 mph - N/A   Overcast
2:53 AM 62.1 °F 57.0 °F 84% 30.28 in 10.0 mi SSW 10.4 mph - N/A   Overcast
3:53 AM 63.0 °F 57.9 °F 84% 30.29 in 10.0 mi SSW 8.1 mph - N/A   Overcast
4:49 AM 62.6 °F 59.0 °F 88% 30.29 in 10.0 mi South 4.6 mph - N/A   Overcast
4:53 AM 62.1 °F 59.0 °F 90% 30.29 in 10.0 mi South 4.6 mph - N/A   Overcast
5:53 AM 62.1 °F 57.9 °F 86% 30.29 in 10.0 mi SSE 6.9 mph - N/A   Overcast
6:05 AM 62.6 °F 57.2 °F 82% 30.29 in 10.0 mi South 6.9 mph - N/A   Overcast
6:53 AM 62.1 °F 59.0 °F 90% 30.29 in 10.0 mi SSE 6.9 mph - N/A   Overcast
7:53 AM 63.0 °F 59.0 °F 87% 30.30 in 10.0 mi SSE 8.1 mph - N/A   Overcast
8:53 AM 63.0 °F 60.1 °F 90% 30.31 in 10.0 mi South 9.2 mph - N/A   Overcast
9:53 AM 64.0 °F 60.1 °F 87% 30.31 in 10.0 mi South 11.5 mph - N/A   Overcast
10:53 AM 66.0 °F 60.1 °F 81% 30.30 in 10.0 mi SSE 11.5 mph - N/A   Overcast
11:53 AM 66.0 °F 60.1 °F 81% 30.29 in 10.0 mi South 10.4 mph - N/A   Overcast
12:53 PM 66.0 °F 60.1 °F 81% 30.28 in 10.0 mi South 9.2 mph - N/A   Overcast
1:53 PM 66.0 °F 60.1 °F 81% 30.27 in 10.0 mi South 9.2 mph - N/A   Overcast
2:53 PM 66.0 °F 61.0 °F 84% 30.26 in 10.0 mi South 9.2 mph - N/A   Overcast
3:53 PM 66.9 °F 61.0 °F 81% 30.26 in 10.0 mi South 10.4 mph - N/A   Mostly Cloudy
4:53 PM 66.0 °F 61.0 °F 84% 30.25 in 10.0 mi South 10.4 mph - N/A   Clear
5:53 PM 64.0 °F 60.1 °F 87% 30.24 in 10.0 mi South 11.5 mph - N/A   Clear
6:53 PM 63.0 °F 60.1 °F 90% 30.24 in 10.0 mi South 9.2 mph - N/A   Clear
7:53 PM 63.0 °F 60.1 °F 90% 30.25 in 10.0 mi South 9.2 mph - N/A   Clear
8:53 PM 63.0 °F 60.1 °F 90% 30.24 in 10.0 mi South 9.2 mph - N/A   Clear
9:53 PM 62.1 °F 60.1 °F 93% 30.23 in 10.0 mi SSE 9.2 mph - N/A   Clear
10:53 PM 62.1 °F 60.1 °F 93% 30.22 in 10.0 mi SSE 11.5 mph - N/A   Clear
11:53 PM 62.1 °F 61.0 °F 96% 30.21 in 10.0 mi SSE 10.4 mph - N/A   Clear